TimeEST,TemperatureF,Dew PointF,Humidity,Sea Level PressureIn,VisibilityMPH,Wind Direction,Wind SpeedMPH,Gust SpeedMPH,PrecipitationIn,Events,Conditions,WindDirDegrees,DateUTC
12:56 AM,35.1,33.1,92,29.69,8.0,West,9.2,-,N/A,,Overcast,260,2014-01-19 05:56:00
1:56 AM,34.0,32.0,92,29.70,10.0,West,6.9,-,N/A,,Overcast,270,2014-01-19 06:56:00
2:56 AM,34.0,30.9,89,29.71,10.0,West,6.9,-,N/A,,Overcast,280,2014-01-19 07:56:00
3:28 AM,34.0,32.0,92,29.71,10.0,WSW,10.4,-,N/A,,Overcast,240,2014-01-19 08:28:00
3:56 AM,34.0,32.0,92,29.71,10.0,West,6.9,-,N/A,,Overcast,270,2014-01-19 08:56:00
4:56 AM,34.0,32.0,92,29.71,10.0,SW,5.8,-,N/A,,Overcast,230,2014-01-19 09:56:00
5:06 AM,34.0,32.0,92,29.71,8.0,SW,6.9,-,N/A,,Overcast,230,2014-01-19 10:06:00
5:51 AM,33.8,30.2,87,29.71,10.0,WSW,11.5,-,N/A,,Overcast,240,2014-01-19 10:51:00
5:56 AM,34.0,30.9,89,29.72,10.0,WSW,9.2,-,N/A,,Overcast,240,2014-01-19 10:56:00
6:12 AM,34.0,30.9,89,29.71,10.0,WSW,9.2,-,N/A,,Overcast,240,2014-01-19 11:12:00
6:26 AM,34.0,30.0,85,29.70,10.0,SW,11.5,-,N/A,,Overcast,230,2014-01-19 11:26:00
6:46 AM,33.1,28.9,85,29.71,10.0,WSW,12.7,-,N/A,,Overcast,240,2014-01-19 11:46:00
6:56 AM,33.1,28.9,85,29.72,10.0,SW,15.0,-,N/A,,Overcast,230,2014-01-19 11:56:00
7:52 AM,33.8,26.6,75,29.71,10.0,WSW,19.6,26.5,N/A,,Mostly Cloudy,240,2014-01-19 12:52:00
7:56 AM,33.1,27.0,78,29.72,10.0,WSW,16.1,26.5,N/A,,Mostly Cloudy,240,2014-01-19 12:56:00
8:07 AM,33.1,27.0,78,29.72,10.0,WSW,16.1,28.8,N/A,,Mostly Cloudy,240,2014-01-19 13:07:00
8:56 AM,33.1,26.1,75,29.72,10.0,WSW,18.4,31.1,N/A,,Overcast,240,2014-01-19 13:56:00
9:41 AM,33.1,27.0,78,29.71,1.8,WSW,18.4,-,0.00,Snow,Light Snow,240,2014-01-19 14:41:00
9:48 AM,32.0,28.0,85,29.71,1.2,SW,18.4,25.3,0.00,Snow,Light Snow,230,2014-01-19 14:48:00
9:56 AM,32.0,28.0,85,29.72,1.8,SW,20.7,25.3,0.00,Snow,Light Snow,230,2014-01-19 14:56:00
10:23 AM,33.1,27.0,78,29.69,4.0,SW,20.7,29.9,0.00,,Mostly Cloudy,230,2014-01-19 15:23:00
10:37 AM,34.0,25.0,70,29.68,10.0,SW,19.6,34.5,0.00,,Scattered Clouds,230,2014-01-19 15:37:00
10:56 AM,34.0,25.0,70,29.68,10.0,WSW,25.3,33.4,0.00,,Scattered Clouds,240,2014-01-19 15:56:00
11:56 AM,36.0,23.0,59,29.64,10.0,WSW,24.2,38.0,N/A,,Mostly Cloudy,240,2014-01-19 16:56:00
12:56 PM,36.0,21.0,55,29.63,10.0,SW,28.8,41.4,N/A,,Mostly Cloudy,230,2014-01-19 17:56:00
12:58 PM,36.0,21.9,57,29.61,10.0,SW,24.2,41.4,N/A,,Scattered Clouds,230,2014-01-19 17:58:00
1:56 PM,36.0,21.0,55,29.60,10.0,WSW,25.3,39.1,N/A,,Clear,240,2014-01-19 18:56:00
2:56 PM,35.1,23.0,61,29.61,10.0,SW,23.0,32.2,N/A,,Scattered Clouds,230,2014-01-19 19:56:00
3:56 PM,35.1,26.1,70,29.61,10.0,SW,29.9,35.7,N/A,,Mostly Cloudy,230,2014-01-19 20:56:00
4:56 PM,35.1,26.1,70,29.60,10.0,SW,26.5,33.4,N/A,,Partly Cloudy,230,2014-01-19 21:56:00
5:56 PM,34.0,24.1,67,29.60,10.0,SW,25.3,35.7,N/A,,Clear,230,2014-01-19 22:56:00
6:56 PM,35.1,24.1,64,29.60,10.0,SW,21.9,34.5,N/A,,Clear,230,2014-01-19 23:56:00
7:56 PM,36.0,24.1,62,29.61,10.0,WSW,27.6,33.4,N/A,,Mostly Cloudy,240,2014-01-20 00:56:00
8:56 PM,36.0,23.0,59,29.63,10.0,WSW,20.7,35.7,N/A,,Scattered Clouds,240,2014-01-20 01:56:00
9:56 PM,36.0,23.0,59,29.62,10.0,WSW,19.6,35.7,N/A,,Mostly Cloudy,250,2014-01-20 02:56:00
10:56 PM,35.1,25.0,67,29.63,10.0,WSW,10.4,-,N/A,,Clear,240,2014-01-20 03:56:00
11:56 PM,37.0,25.0,62,29.60,10.0,WSW,18.4,25.3,N/A,,Clear,250,2014-01-20 04:56:00